,

(GMT )
La Tuque

Weather History for CWDQ - July, 2013

Change the Weather History Date:

Sunday, July 14, 2013

  Actual Average Record
Temperature  
Mean Temperature 72 °F -  
Max Temperature 93 °F - - ()
Min Temperature 51 °F - - ()
Cooling Degree Days 7    
Growing Degree Days 22 (Base 50)    
Moisture  
Dew Point 57 °F    
Average Humidity 63    
Maximum Humidity 99    
Minimum Humidity 21    
Precipitation  
Precipitation 0.00 in - - ()
Sea Level Pressure  
Sea Level Pressure 30.23 in    
Wind  
Wind Speed 2 mph ()    
Max Wind Speed 7 mph    
Max Gust Speed -    
T = Trace of Precipitation, MM = Missing Value Source: Averaged Metar Reports

Daily Weather History Graph

Daily Weather History Graph

Search for Another Location

Airport or City:

Trip Planner

Search our weather history database for the weather conditions in past years. The results will help you decide how hot, cold, wet, or windy it might be!

Date:

Astronomy

Jul. 14, 2013 Rise Set
Actual Time 5:08 AM EDT 8:44 PM EDT
Civil Twilight 4:30 AM EDT 9:23 PM EDT
Nautical Twilight 3:38 AM EDT 10:14 PM EDT
Astronomical Twilight 2:27 AM EDT 11:24 PM EDT
Moon 11:53 AM EDT (7/14) 11:23 PM EDT (7/14)
Length of Visible Light 16h 52m
Length of Day
15h 35m
Waxing Crescent, 35% of the Moon is Illuminated
Jul 14
Waxing Crescent
Jul 15
First Quarter
Jul 22
Full
Jul 29
Last Quarter
Aug 6
New

Hourly Weather History & Observations

Time (EDT) Temp. Heat Index Dew Point Humidity Pressure Visibility Wind Dir Wind Speed Gust Speed Precip Events Conditions
12:00 AM 60.1 °F - 55.9 °F 86% 30.25 in - SE 2.3 mph - N/A   Unknown
1:00 AM 57.4 °F - 55.6 °F 94% 30.26 in - SE 1.2 mph - N/A   Unknown
2:00 AM 55 °F - 54 °F 94% 30.26 in - ESE 1.2 mph - -  
2:00 AM 54.9 °F - 53.8 °F 96% 30.26 in - ESE 1.2 mph - N/A   Unknown
3:00 AM 54.1 °F - 53.6 °F 98% 30.27 in - WSW 1.2 mph - N/A   Unknown
4:00 AM 53.4 °F - 53.1 °F 99% 30.28 in - SSW 1.2 mph - N/A   Unknown
5:00 AM 51.8 °F - 51.4 °F 99% 30.29 in - SSE 1.2 mph - N/A   Unknown
6:00 AM 53.6 °F - 53.4 °F 99% 30.30 in - Calm Calm - N/A   Unknown
7:00 AM 57.9 °F - 57.0 °F 97% 30.30 in - South 2.3 mph - N/A   Unknown
8:00 AM 62 °F - 60 °F 90% 30.30 in - SSW 4.5 mph - -  
8:00 AM 62.4 °F - 59.7 °F 91% 30.30 in - SSW 2.3 mph - N/A   Unknown
9:00 AM 70.3 °F - 62.2 °F 75% 30.29 in - South 2.3 mph - N/A   Unknown
10:00 AM 76.8 °F - 62.1 °F 60% 30.27 in - SSE 2.3 mph - N/A   Unknown
11:00 AM 82.4 °F 83.7 °F 63.7 °F 53% 30.27 in - ESE 2.3 mph - N/A   Unknown
12:00 PM 84.6 °F 84.8 °F 60.8 °F 45% 30.25 in - East 2.3 mph - N/A   Unknown
1:00 PM 88.7 °F 87.8 °F 58.5 °F 36% 30.23 in - South 5.8 mph - N/A   Unknown
2:00 PM 90 °F - 55 °F 21% 30.21 in - SSW 5.8 mph - -  
2:00 PM 90.3 °F 88.3 °F 55.2 °F 30% 30.21 in - SSW 5.8 mph - N/A   Unknown
3:00 PM 91.6 °F 89.6 °F 55.2 °F 29% 30.19 in - South 6.9 mph - N/A   Unknown
4:00 PM 91.8 °F 89.5 °F 54.5 °F 28% 30.18 in - SSW 4.6 mph - N/A   Unknown
5:00 PM 92.5 °F 89.9 °F 53.2 °F 26% 30.17 in - West 5.8 mph - N/A   Unknown
6:00 PM 91.2 °F 88.7 °F 53.1 °F 27% 30.17 in - SW 5.8 mph - N/A   Unknown
7:00 PM 90.0 °F 87.7 °F 54.1 °F 29% 30.16 in - WSW 4.6 mph - N/A   Unknown
8:00 PM 87 °F - 56 °F 25% 30.15 in - SSW 3.5 mph - -  
8:00 PM 86.7 °F 85.4 °F 56.5 °F 36% 30.15 in - SSW 3.5 mph - N/A   Unknown
9:00 PM 76.3 °F - 60.8 °F 59% 30.16 in - SW 1.2 mph - N/A   Unknown
10:00 PM 70.2 °F - 59.7 °F 69% 30.17 in - East 1.2 mph - N/A   Unknown
11:00 PM 67.1 °F - 60.3 °F 79% 30.17 in - East 2.3 mph - N/A   Unknown